When you browse on this site, cookies collect data to enhance your experience and personalize the content and advertising you see.
Visit our Privacy Policy to learn more. By continuing to use the site, you agree to this use of cookies and data.
  • en Suisse
  • Liste des pays
  • À 7 jours
  • Température de l'eau
  • Carte météo
  • Widgets météo
  • user-avatar
    Se connecter

    Météo par heure à Kandi

    Ce jour, 17 Octobre, Jeudi

    Heure Température Précipitation Vent Pression Humidité
    00:00 +27°C° 0 mm 1 m/s 736 mmHg 82%
    01:00 +26°C° 0 mm 1 m/s 736 mmHg 84%
    02:00 +26°C° 0 mm 2 m/s 736 mmHg 85%
    03:00 +26°C° 0 mm 2 m/s 736 mmHg 86%
    04:00 +26°C° 0 mm 2 m/s 736 mmHg 87%
    05:00 +25°C° 0 mm 2 m/s 736 mmHg 88%
    06:00 +25°C° 0 mm 2 m/s 736 mmHg 88%
    07:00 +27°C° 0 mm 1 m/s 737 mmHg 81%
    08:00 +29°C° 0 mm 1 m/s 737 mmHg 74%
    09:00 +31°C° 0 mm 1 m/s 738 mmHg 67%
    10:00 +33°C° 0 mm 1 m/s 737 mmHg 61%
    11:00 +34°C° 0 mm 1 m/s 737 mmHg 55%
    12:00 +34°C° 0 mm 0 m/s 737 mmHg 49%
    13:00 +36°C° 0 mm 1 m/s 736 mmHg 48%
    14:00 +36°C° 0 mm 1 m/s 735 mmHg 47%
    15:00 +36°C° 0 mm 1 m/s 735 mmHg 45%
    16:00 +34°C° 0 mm 1 m/s 735 mmHg 50%
    17:00 +33°C° 0 mm 1 m/s 735 mmHg 55%
    18:00 +31°C° 0 mm 1 m/s 735 mmHg 60%
    19:00 +30°C° 0 mm 1 m/s 735 mmHg 63%
    20:00 +30°C° 0 mm 1 m/s 736 mmHg 67%
    21:00 +29°C° 0 mm 1 m/s 737 mmHg 70%
    22:00 +29°C° 0 mm 1 m/s 736 mmHg 72%
    23:00 +28°C° 0 mm 1 m/s 736 mmHg 73%

    Demain, 18 Octobre, Vendredi

    Heure Température Précipitation Vent Pression Humidité
    00:00 +28°C° 0 mm 1 m/s 736 mmHg 74%
    01:00 +28°C° 0 mm 1 m/s 736 mmHg 75%
    02:00 +27°C° 0 mm 1 m/s 735 mmHg 76%
    03:00 +27°C° 0 mm 1 m/s 735 mmHg 77%
    04:00 +27°C° 0 mm 1 m/s 735 mmHg 79%
    05:00 +26°C° 0 mm 1 m/s 736 mmHg 81%
    06:00 +26°C° 0 mm 1 m/s 736 mmHg 82%
    07:00 +28°C° 0 mm 2 m/s 736 mmHg 78%
    08:00 +29°C° 0 mm 2 m/s 736 mmHg 74%
    09:00 +31°C° 0 mm 2 m/s 737 mmHg 69%
    10:00 +32°C° 0 mm 2 m/s 736 mmHg 64%
    11:00 +35°C° 0 mm 2 m/s 736 mmHg 58%
    12:00 +35°C° 0 mm 1 m/s 735 mmHg 52%
    13:00 +36°C° 0 mm 1 m/s 735 mmHg 49%
    14:00 +36°C° 0 mm 1 m/s 734 mmHg 46%
    15:00 +35°C° 0 mm 0 m/s 734 mmHg 43%
    16:00 +35°C° 0.1 mm 1 m/s 734 mmHg 50%
    17:00 +33°C° 0.1 mm 1 m/s 734 mmHg 56%
    18:00 +31°C° 0.1 mm 1 m/s 734 mmHg 62%
    19:00 +30°C° 1.1 mm 2 m/s 735 mmHg 70%
    20:00 +28°C° 1.1 mm 2 m/s 735 mmHg 78%
    21:00 +27°C° 1.1 mm 2 m/s 735 mmHg 86%
    22:00 +27°C° 1.3 mm 2 m/s 735 mmHg 84%
    23:00 +26°C° 1.3 mm 2 m/s 735 mmHg 83%

    Après-demain, 19 Octobre, Samedi

    Heure Température Précipitation Vent Pression Humidité
    00:00 +26°C° 1.3 mm 1 m/s 735 mmHg 81%
    01:00 +26°C° 0 mm 1 m/s 735 mmHg 82%
    02:00 +25°C° 0 mm 2 m/s 734 mmHg 83%
    03:00 +25°C° 0 mm 2 m/s 734 mmHg 84%
    04:00 +25°C° 0 mm 2 m/s 734 mmHg 86%
    05:00 +25°C° 0 mm 2 m/s 735 mmHg 88%
    06:00 +25°C° 0 mm 2 m/s 735 mmHg 90%
    07:00 +26°C° 0 mm 2 m/s 736 mmHg 84%
    08:00 +28°C° 0 mm 2 m/s 736 mmHg 79%
    09:00 +30°C° 0 mm 2 m/s 737 mmHg 74%
    10:00 +31°C° 0 mm 2 m/s 736 mmHg 68%
    11:00 +34°C° 0 mm 2 m/s 736 mmHg 62%
    12:00 +35°C° 0 mm 2 m/s 735 mmHg 57%
    13:00 +35°C° 0.2 mm 2 m/s 735 mmHg 58%
    14:00 +35°C° 0.2 mm 2 m/s 734 mmHg 59%
    15:00 +35°C° 0.2 mm 2 m/s 734 mmHg 60%
    16:00 +32°C° 0.5 mm 2 m/s 734 mmHg 66%
    17:00 +30°C° 0.5 mm 2 m/s 734 mmHg 73%
    18:00 +29°C° 0.5 mm 2 m/s 735 mmHg 80%
    19:00 +28°C° 0.1 mm 2 m/s 735 mmHg 81%
    20:00 +28°C° 0.1 mm 2 m/s 736 mmHg 83%
    21:00 +27°C° 0.1 mm 2 m/s 736 mmHg 84%
    22:00 +27°C° 0.1 mm 2 m/s 736 mmHg 84%
    23:00 +27°C° 0.1 mm 2 m/s 737 mmHg 84%

    20 Octobre, Dimanche

    Heure Température Précipitation Vent Pression Humidité
    00:00 +26°C° 0.1 mm 2 m/s 737 mmHg 84%
    01:00 +26°C° 0 mm 2 m/s 737 mmHg 84%
    02:00 +26°C° 0 mm 3 m/s 737 mmHg 85%
    03:00 +26°C° 0 mm 3 m/s 736 mmHg 86%
    04:00 +26°C° 0 mm 3 m/s 737 mmHg 86%
    05:00 +26°C° 0 mm 2 m/s 737 mmHg 86%
    06:00 +26°C° 0 mm 2 m/s 737 mmHg 86%
    07:00 +27°C° 0 mm 2 m/s 737 mmHg 83%
    08:00 +27°C° 0 mm 2 m/s 737 mmHg 80%
    09:00 +28°C° 0 mm 2 m/s 737 mmHg 76%
    10:00 +29°C° 0 mm 1 m/s 737 mmHg 75%
    11:00 +29°C° 0 mm 1 m/s 736 mmHg 74%
    12:00 +27°C° 0 mm 0 m/s 736 mmHg 72%
    13:00 +28°C° 0 mm 0 m/s 735 mmHg 71%
    14:00 +28°C° 0 mm 0 m/s 735 mmHg 69%
    15:00 +30°C° 0 mm 1 m/s 735 mmHg 68%
    16:00 +29°C° 0 mm 1 m/s 735 mmHg 71%
    17:00 +29°C° 0 mm 1 m/s 735 mmHg 75%
    18:00 +28°C° 0 mm 1 m/s 735 mmHg 78%
    19:00 +27°C° 0 mm 1 m/s 736 mmHg 79%
    20:00 +27°C° 0 mm 1 m/s 737 mmHg 79%
    21:00 +27°C° 0 mm 1 m/s 737 mmHg 80%
    22:00 +27°C° 0 mm 1 m/s 737 mmHg 82%
    23:00 +26°C° 0 mm 1 m/s 737 mmHg 84%

    21 Octobre, Lundi

    Heure Température Précipitation Vent Pression Humidité
    00:00 +26°C° 0 mm 1 m/s 737 mmHg 86%
    01:00 +26°C° 0 mm 1 m/s 737 mmHg 87%
    02:00 +25°C° 0 mm 2 m/s 737 mmHg 89%
    03:00 +25°C° 0 mm 2 m/s 737 mmHg 90%
    04:00 +25°C° 0 mm 2 m/s 737 mmHg 89%
    05:00 +25°C° 0 mm 2 m/s 737 mmHg 89%
    06:00 +25°C° 0 mm 2 m/s 737 mmHg 88%
    07:00 +27°C° 0 mm 2 m/s 737 mmHg 82%
    08:00 +28°C° 0 mm 2 m/s 738 mmHg 76%
    09:00 +30°C° 0 mm 2 m/s 738 mmHg 70%
    10:00 +32°C° 0 mm 2 m/s 737 mmHg 63%
    11:00 +33°C° 0 mm 1 m/s 737 mmHg 56%
    12:00 +35°C° 0 mm 1 m/s 736 mmHg 49%
    13:00 +36°C° 0 mm 1 m/s 735 mmHg 48%
    14:00 +36°C° 0 mm 1 m/s 735 mmHg 46%
    15:00 +36°C° 0 mm 1 m/s 734 mmHg 45%
    16:00 +34°C° 0 mm 1 m/s 734 mmHg 51%
    17:00 +33°C° 0 mm 1 m/s 734 mmHg 56%
    18:00 +31°C° 0 mm 1 m/s 734 mmHg 62%
    19:00 +30°C° 0 mm 1 m/s 735 mmHg 65%
    20:00 +30°C° 0 mm 1 m/s 735 mmHg 68%
    21:00 +29°C° 0 mm 1 m/s 736 mmHg 71%
    22:00 +29°C° 0 mm 1 m/s 736 mmHg 73%
    23:00 +28°C° 0 mm 1 m/s 736 mmHg 76%

    22 Octobre, Mardi

    Heure Température Précipitation Vent Pression Humidité
    00:00 +28°C° 0 mm 1 m/s 736 mmHg 78%
    01:00 +27°C° 0 mm 1 m/s 735 mmHg 80%
    02:00 +27°C° 0 mm 1 m/s 735 mmHg 82%
    03:00 +27°C° 0 mm 2 m/s 735 mmHg 83%
    04:00 +26°C° 0 mm 1 m/s 735 mmHg 84%
    05:00 +26°C° 0 mm 1 m/s 735 mmHg 85%
    06:00 +26°C° 0 mm 1 m/s 735 mmHg 86%
    07:00 +28°C° 0 mm 1 m/s 736 mmHg 79%
    08:00 +30°C° 0 mm 1 m/s 736 mmHg 71%
    09:00 +32°C° 0 mm 1 m/s 737 mmHg 64%
    10:00 +34°C° 0 mm 1 m/s 736 mmHg 57%
    11:00 +36°C° 0 mm 1 m/s 735 mmHg 50%
    12:00 +36°C° 0 mm 0 m/s 735 mmHg 44%
    13:00 +39°C° 0 mm 1 m/s 734 mmHg 43%
    14:00 +39°C° 0 mm 1 m/s 733 mmHg 43%
    15:00 +37°C° 0 mm 1 m/s 733 mmHg 42%
    16:00 +35°C° 0 mm 1 m/s 733 mmHg 47%
    17:00 +34°C° 0 mm 1 m/s 733 mmHg 51%
    18:00 +30°C° 0 mm 0 m/s 733 mmHg 56%
    19:00 +31°C° 0 mm 1 m/s 734 mmHg 59%
    20:00 +31°C° 0 mm 1 m/s 734 mmHg 62%
    21:00 +30°C° 0 mm 1 m/s 734 mmHg 64%
    22:00 +30°C° 0 mm 2 m/s 734 mmHg 68%
    23:00 +29°C° 0 mm 2 m/s 734 mmHg 71%
    Voir plus